Raduga-1

operational
NORAD ID: 34264 Int'l Des: 2009-010 Owner: KVR Country: RU
HEOCIRCULAR

About Raduga-1

Description loading...

Live Position

Loading 3D Globe...

Upcoming Passes

Altitude History

Altitude vs Time

uPlot chart will show altitude changes over time

Two-Line Element Set

1 34264U 09010A 26061.62212979 -.00000054 00000-0 00000-0 0 9992
2 34264 11.9067 42.7020 0010365 19.2581 41.4616 0.99814803 62115
Epoch: Mar 2, 2026 • Age: 43 hours

Current Status

Altitude 35927.3 km
Velocity 3.07 km/s
Sub-Earth Point 9.51°N, 77.82°E
Launch Date Feb 28, 2009
Age 17 years
Type other

Technical Details

Classification Payload
Mass 2320.00 kg
Dry Mass 2200.00 kg
Total Mass 2320.00 kg
Length 5.00 m
Diameter 2.00 m
Span 20.00 m
Shape Step Cyl + 2 Pan
Manufacturer RESH/POLK
Bus Type Globus
Phase Status In Orbit
Owner/State KVR/RU

Large Constellations

Loading constellations...